Tracking 31027 objects as of 19-Jul-2025
HD Live streaming from Space Station
objects crossing your sky now

STARLINK-5450

Track STARLINK-5450 now!
10-day predictions
STARLINK-5450 is classified as:


NORAD ID: 54778
Int'l Code: 2022-175W
Perigee: 546.1 km
Apogee: 547.7 km
Inclination: 53.2 °
Period: 95.4 minutes
Semi major axis: 6917 km
RCS: Unknown
Launch date: December 17, 2022
Source: United States (US)
Launch site: AIR FORCE EASTERN TEST RANGE (AFETR)
Your satellite tracking list
FENGYUN 1C DEB
Track 1 satellite(s)




NASA's NSSDC Master Catalog

Two Line Element Set (TLE):
1 54778U 22175W   25199.43184425  .00000287  00000-0  36133-4 0  9992
2 54778  53.2195   0.8115 0001184  94.8613 265.2515 15.08836720144766
Source of the keplerian elements: AFSPC